Voltar ao catálogo

COSMOS 1929

AtivoMilitarLEO
NORAD 18942·PAYLOAD·🇷🇺 Russia

Lançado Mar 11, 1988 de Plesetsk Cosmodrome

Loading…

Próximas Passagens (próximas 24 horas)

TLE

AtualizadoSource: Space-Track

Época: Sep 14, 2026, 05:57 UTC

1 18942U 88016F   26257.24798623 -.00000014  00000-0  16194-4 0  9991
2 18942  74.0086  16.7159 0020152  24.5553 347.6581 12.54809819764068

Acompanhe COSMOS 1929 em tempo real com AllMySat

Download on the App Store